[[{"header":{"parameterUnit":"m.s-1","parameterCategory":1,"la1":30.2991,"la2":30.254,"lo1":-89.0895,"lo2":-89.0444,"dy":0.0017,"dx":0.0017,"nx":28,"ny":28,"refTime":"2024-07-23T21:00:00:Z","depth":0,"parameterNumber":2,"parameterNumberName":"U-component_of_WINDS"},"data":[0,0,0,0,0,0,0,0,0,0,0,0,0,0,0,0,0,0,0,0,0,0,0,0,0,0,0,0,0,0,0,0,0,0,0,0,0,0,0,0,0,0,0,0,0,0,0,0,0,0,0,0,0,0,0,0,0,0,2.3364,2.3364,0,2.3279,2.3278,2.3277,2.3149,2.3146,2.3144,2.3142,2.3054,2.3054,2.3054,0,0,0,0,0,0,0,0,0,0,0,0,0,2.3418,2.3418,2.3365,2.3363,2.3362,2.3279,2.3278,2.3277,2.3149,2.3146,2.3143,2.3141,2.3054,2.3054,2.3054,0,0,0,0,0,0,0,0,0,0,0,0,0,2.337,2.3418,2.3365,2.3289,2.3281,2.3279,2.3278,2.3277,2.315,2.3146,2.3143,2.314,2.3054,2.3054,2.3054,2.312,0,0,2.3053,2.3052,0,0,0,0,0,0,0,0,2.3373,2.3368,2.3301,2.3294,2.3285,2.3221,2.3265,2.3224,2.315,2.3199,2.3142,2.3138,2.3112,2.3107,2.3098,2.3116,2.3112,2.3053,2.3052,2.3052,2.3052,0,0,0,0,0,0,0,2.3377,2.3371,2.3331,2.33,2.329,2.3259,2.3248,2.3256,2.3176,2.3195,2.3185,2.3177,2.3107,2.3099,2.3095,2.3111,2.3053,2.3052,2.3052,2.3052,2.3178,2.3182,0,0,0,0,0,0,2.3391,2.3375,2.3333,2.3328,2.3322,2.3261,2.3249,2.3245,2.3176,2.3162,2.318,2.3171,2.3101,2.3096,2.3092,2.3164,2.3052,2.3052,2.3052,2.3175,2.3179,2.3183,0,0,0,0,0,0,2.3393,2.3389,2.3337,2.3349,2.334,2.3264,2.326,2.3245,2.3236,2.3164,2.3149,2.3186,2.3098,2.3092,2.3114,2.3159,2.3052,2.3051,2.317,2.3176,2.3181,2.331,0,0,0,0,0,0,2.3395,2.339,2.3414,2.335,2.334,2.336,2.3263,2.3246,2.3236,2.3224,2.3166,2.3153,2.3095,2.3115,2.3114,2.3157,2.3051,2.3166,2.3173,2.3179,2.3301,2.3319,2.3334,0,0,0,0,0,2.3397,2.3453,2.3416,2.3411,2.3368,2.3363,2.3357,2.3289,2.3241,2.3264,2.3218,2.3155,2.3156,2.3118,2.3116,2.3159,2.3163,2.3171,2.3179,2.3294,2.3315,2.3334,0,0,0,0,0,0,2.3523,2.3443,2.3401,2.3438,2.3408,2.3341,2.3368,2.3314,2.3298,2.3287,2.3204,2.3192,2.3224,2.3194,2.3154,2.322,2.3149,2.3157,2.3238,2.3258,2.3274,2.3279,2.3051,0,0,0,0,0,2.3556,2.3558,2.3488,2.3528,2.3515,2.3445,2.3441,2.3391,2.3357,2.3344,2.3299,2.3268,2.3261,2.3258,2.3248,2.3297,2.3282,2.3326,2.3343,2.3357,2.3364,2.3388,2.3406,2.3209,2.3209,2.3209,0,0,2.3622,2.3579,2.3585,2.3552,2.3523,2.3528,2.3435,2.3444,2.3446,2.3345,2.3362,2.3329,2.3289,2.3325,2.3339,2.3301,2.3416,2.3367,2.3379,2.3378,2.3398,2.3416,2.3433,2.3214,2.3213,2.3213,0,0,2.3744,2.3713,2.3742,2.3715,2.3673,2.3627,2.3634,2.3576,2.355,2.3566,2.349,2.3493,2.3483,2.3458,2.3444,2.3561,2.3502,2.356,2.3645,2.3669,2.3685,2.3698,2.3739,2.3754,2.3568,2.3568,2.3568,0,2.3831,2.3835,2.3764,2.3777,2.3765,2.3675,2.3704,2.3682,2.3639,2.3633,2.3593,2.3579,2.3546,2.3574,2.3603,2.3595,2.3601,2.3564,2.3688,2.3701,2.3712,2.375,2.3766,2.3575,2.3574,2.3573,2.3573,0,2.3944,2.3948,2.3977,2.3938,2.393,2.3952,2.3884,2.3884,2.3837,2.3795,2.3814,2.3772,2.3751,2.3755,2.3709,2.3778,2.3756,2.3704,2.363,2.3739,2.3773,2.3787,2.3585,2.3583,2.3581,2.3579,0,0,2.414,2.4063,2.4075,2.4056,2.4005,2.4007,2.4026,2.4006,2.4008,2.3983,2.3995,2.3991,2.3942,2.3926,2.3877,2.3899,2.3993,2.3843,2.3841,2.3871,2.4066,2.4104,2.4122,2.3955,2.3958,2.396,2.4069,0,2.425,2.4276,2.4214,2.4255,2.4258,2.4175,2.4191,2.4162,2.4124,2.4121,2.408,2.4077,2.4014,2.4004,2.4022,2.3978,2.4031,2.3969,2.3966,2.3966,2.3976,2.414,2.418,2.4285,2.4082,2.4084,2.4086,0,2.4381,2.4363,2.4405,2.4353,2.4352,2.4367,2.4345,2.4344,2.431,2.4281,2.4265,2.4208,2.4223,2.4156,2.4175,2.4134,2.413,2.4109,2.4111,2.4106,2.4031,2.4138,2.4316,2.4332,2.4106,2.4104,2.4103,0,2.4518,2.4504,2.4528,2.4515,2.4455,2.4467,2.4443,2.4405,2.4398,2.438,2.4374,2.4359,2.4349,2.4338,2.4278,2.4235,2.4305,2.4232,2.4281,2.4282,2.4296,2.4296,2.4475,2.4298,2.4298,2.4298,2.4297,0,2.4646,2.4674,2.4588,2.4602,2.4632,2.4562,2.4594,2.4561,2.4529,2.4536,2.4464,2.4472,2.4394,2.4393,2.4347,2.437,2.4367,2.4344,2.433,2.4348,2.4351,2.4342,2.4332,2.4302,2.4301,2.43,2.4299,0,2.4801,2.4745,2.4765,2.4707,2.4694,2.4718,2.4669,2.468,2.4639,2.4649,2.4647,2.4583,2.4579,2.452,2.4503,2.4472,2.4512,2.4487,2.4524,2.4515,2.4566,2.4561,2.4743,2.4763,2.4577,2.4579,2.458,0,2.4885,2.4905,2.4851,2.485,2.4829,2.483,2.4822,2.4755,2.4751,2.4715,2.4731,2.4721,2.471,2.4708,2.466,2.4647,2.4619,2.4684,2.4616,2.4634,2.4618,2.4616,2.4618,2.4697,2.47,2.4702,2.4703,0,2.504,2.5012,2.5004,2.4988,2.4981,2.4965,2.4944,2.4948,2.4875,2.4874,2.4869,2.4861,2.4844,2.4836,2.4815,2.479,2.4734,2.4726,2.4736,2.4753,2.4773,2.4761,2.456,2.4721,2.4719,2.4718,2.4717,2.4716,2.516,2.5174,2.5139,2.5133,2.5111,2.5094,2.5102,2.5063,2.5058,2.5039,2.5001,2.5003,2.497,2.4936,2.4917,2.4917,2.4884,2.4899,2.4902,2.4906,2.4916,2.4776,2.4913,2.4913,2.4912,2.4912,2.4911,0,2.5309,2.5283,2.5279,2.5252,2.5249,2.5199,2.5174,2.5174,2.5177,2.5151,2.5142,2.5138,2.513,2.5083,2.507,2.508,2.5054,2.5078,2.5075,2.507,2.4947,2.4939,2.5099,2.5099,2.5099,2.5099,2.5099,2.5099,2.5386,2.5407,2.5376,2.5386,2.5359,2.536,2.5351,2.5335,2.5314,2.5313,2.5306,2.5276,2.5242,2.5227,2.5218,2.5204,2.5202,2.5234,2.5212,2.5097,2.5079,2.5062,2.5053,2.5235,2.5235,2.5335,2.5336,2.5336]},{"header":{"parameterUnit":"m.s-1","parameterCategory":1,"la1":30.2991,"la2":30.254,"lo1":-89.0895,"lo2":-89.0444,"dy":0.0017,"dx":0.0017,"nx":28,"ny":28,"refTime":"2024-07-23T21:00:00:Z","depth":0,"parameterNumber":3,"parameterNumberName":"V-component_of_WINDS"},"data":[0,0,0,0,0,0,0,0,0,0,0,0,0,0,0,0,0,0,0,0,0,0,0,0,0,0,0,0,0,0,0,0,0,0,0,0,0,0,0,0,0,0,0,0,0,0,0,0,0,0,0,0,0,0,0,0,0,0,4.1738,4.1738,0,4.1728,4.1728,4.1728,4.171,4.171,4.1709,4.1709,4.1697,4.1697,4.1697,0,0,0,0,0,0,0,0,0,0,0,0,0,4.1742,4.1742,4.1738,4.1738,4.1738,4.1728,4.1728,4.1728,4.171,4.171,4.1709,4.1709,4.1697,4.1697,4.1697,0,0,0,0,0,0,0,0,0,0,0,0,0,4.1737,4.1742,4.1738,4.1728,4.1727,4.1728,4.1728,4.1728,4.171,4.171,4.1709,4.1709,4.1697,4.1697,4.1697,4.1707,0,0,4.1697,4.1697,0,0,0,0,0,0,0,0,4.1737,4.1737,4.173,4.1729,4.1728,4.172,4.1725,4.1721,4.171,4.1717,4.1709,4.1709,4.1705,4.1705,4.1704,4.1707,4.1706,4.1697,4.1697,4.1697,4.1697,0,0,0,0,0,0,0,4.1738,4.1737,4.1734,4.1729,4.1728,4.1724,4.1723,4.1724,4.1714,4.1716,4.1715,4.1714,4.1705,4.1704,4.1703,4.1706,4.1697,4.1697,4.1697,4.1697,4.1717,4.1717,0,0,0,0,0,0,4.174,4.1737,4.1734,4.1734,4.1731,4.1724,4.1723,4.1723,4.1714,4.1712,4.1714,4.1713,4.1704,4.1703,4.1703,4.1714,4.1697,4.1697,4.1697,4.1716,4.1717,4.1717,0,0,0,0,0,0,4.174,4.1739,4.1735,4.1735,4.1734,4.1725,4.1725,4.1723,4.1722,4.1712,4.171,4.1715,4.1704,4.1703,4.1706,4.1713,4.1697,4.1697,4.1716,4.1716,4.1717,4.1735,0,0,0,0,0,0,4.174,4.174,4.1743,4.1735,4.1734,4.1739,4.1725,4.1723,4.1722,4.172,4.1713,4.1711,4.1703,4.1706,4.1706,4.1713,4.1697,4.1715,4.1716,4.1717,4.1734,4.1737,4.1739,0,0,0,0,0,4.174,4.1748,4.1743,4.1743,4.1739,4.1739,4.1738,4.1729,4.1723,4.1726,4.172,4.1711,4.1713,4.1707,4.1707,4.1713,4.1714,4.1716,4.1717,4.1733,4.1736,4.1739,0,0,0,0,0,0,4.1756,4.1747,4.1741,4.1748,4.1744,4.1736,4.174,4.1733,4.1731,4.173,4.1718,4.1717,4.1722,4.1718,4.1712,4.1722,4.1712,4.1713,4.1724,4.1727,4.173,4.173,4.1697,0,0,0,0,0,4.1761,4.1762,4.1754,4.176,4.1759,4.175,4.175,4.1743,4.1739,4.1738,4.1732,4.1728,4.1727,4.1727,4.1726,4.1734,4.1732,4.1738,4.174,4.1742,4.1743,4.1747,4.175,4.1721,4.1721,4.1721,0,0,4.1769,4.1765,4.1766,4.1763,4.176,4.1761,4.1749,4.1751,4.1752,4.1738,4.1741,4.1737,4.1732,4.1737,4.1739,4.1734,4.1751,4.1744,4.1746,4.1745,4.1749,4.1751,4.1754,4.1722,4.1722,4.1722,0,0,4.1786,4.1783,4.1788,4.1785,4.178,4.1775,4.1776,4.1769,4.1766,4.1769,4.1759,4.176,4.1759,4.1756,4.1755,4.1772,4.1763,4.1772,4.1784,4.1788,4.179,4.1792,4.1798,4.18,4.1773,4.1773,4.1773,0,4.1797,4.1799,4.1791,4.1794,4.1793,4.1781,4.1786,4.1784,4.1779,4.1779,4.1773,4.1773,4.1768,4.1773,4.1778,4.1777,4.1778,4.1772,4.1791,4.1792,4.1794,4.18,4.1802,4.1774,4.1774,4.1774,4.1774,0,4.1814,4.1815,4.182,4.1816,4.1816,4.182,4.1812,4.1812,4.1806,4.1801,4.1805,4.18,4.1798,4.1799,4.1793,4.1803,4.18,4.1793,4.1782,4.1798,4.1803,4.1805,4.1775,4.1775,4.1775,4.1774,0,0,4.1839,4.1832,4.1833,4.1832,4.1827,4.1828,4.1831,4.183,4.1831,4.1828,4.1831,4.1831,4.1825,4.1823,4.1817,4.182,4.1834,4.1812,4.1812,4.1816,4.1845,4.1851,4.1853,4.1829,4.183,4.183,4.1846,0,4.1855,4.186,4.1853,4.186,4.1862,4.1852,4.1855,4.1852,4.1848,4.1848,4.1843,4.1844,4.1835,4.1834,4.1837,4.1832,4.184,4.1831,4.1831,4.1831,4.1832,4.1856,4.1861,4.1877,4.1848,4.1848,4.1848,0,4.1873,4.1872,4.1879,4.1874,4.1875,4.1878,4.1876,4.1877,4.1874,4.187,4.1869,4.1862,4.1865,4.1856,4.186,4.1854,4.1854,4.1851,4.1852,4.1851,4.184,4.1855,4.1881,4.1883,4.1851,4.1851,4.1851,0,4.1891,4.1891,4.1896,4.1895,4.1889,4.1892,4.1889,4.1886,4.1885,4.1884,4.1884,4.1883,4.1882,4.1882,4.1875,4.1868,4.188,4.187,4.1877,4.1877,4.1879,4.1879,4.1905,4.188,4.188,4.188,4.188,0,4.1908,4.1913,4.1904,4.1907,4.1912,4.1904,4.191,4.1906,4.1903,4.1905,4.1896,4.1898,4.1889,4.189,4.1884,4.1889,4.1889,4.1886,4.1884,4.1886,4.1887,4.1886,4.1884,4.188,4.188,4.188,4.188,0,4.1928,4.1922,4.1927,4.1922,4.192,4.1925,4.192,4.1922,4.1918,4.1921,4.1921,4.1914,4.1914,4.1907,4.1907,4.1903,4.191,4.1907,4.1911,4.191,4.1918,4.1917,4.1943,4.1946,4.192,4.192,4.192,0,4.194,4.1943,4.1939,4.194,4.1938,4.1939,4.194,4.1932,4.1932,4.193,4.1932,4.1933,4.1932,4.1934,4.1929,4.1929,4.1925,4.1934,4.1925,4.1927,4.1925,4.1925,4.1925,4.1936,4.1937,4.1937,4.1937,0,4.196,4.1958,4.1958,4.1958,4.1959,4.1958,4.1957,4.1958,4.195,4.1951,4.1952,4.1952,4.1952,4.1952,4.1951,4.1948,4.1941,4.194,4.1942,4.1944,4.1946,4.1945,4.1916,4.1939,4.1939,4.1939,4.1939,4.1939,4.1976,4.1979,4.1977,4.1978,4.1976,4.1976,4.1978,4.1974,4.1975,4.1975,4.197,4.1972,4.1969,4.1967,4.1965,4.1967,4.1962,4.1965,4.1965,4.1966,4.1967,4.1947,4.1967,4.1967,4.1966,4.1966,4.1966,0,4.1996,4.1994,4.1996,4.1995,4.1996,4.199,4.1988,4.199,4.1992,4.199,4.199,4.1992,4.1992,4.1987,4.1987,4.199,4.1986,4.199,4.1989,4.1989,4.1971,4.197,4.1992,4.1992,4.1992,4.1992,4.1992,4.1992,4.2007,4.2012,4.2009,4.2013,4.2011,4.2013,4.2013,4.2012,4.2011,4.2013,4.2014,4.2011,4.2008,4.2008,4.2008,4.2007,4.2007,4.2012,4.2009,4.1992,4.199,4.1988,4.1986,4.2012,4.2012,4.2026,4.2027,4.2027]}]]